Flag for Brazil Weather past 2 weeks in Porto Acre, Acre, Brazil

Now
86 °F

Scattered showers. Scattered clouds.


Feels Like: 95 °F
Forecast: 71 / 93 °F
Wind: 3 mph from West

Location: Rio Branco Airport

Current Time: Dec 19, 2014 at 1:31:49 PM

Latest Report: Dec 19, 2014 at 1:00 PM


Visibility: N/A

Pressure: N/A

Humidity: 70%

Dew point: 75 °F

Location of Porto AcreLocation

Historic Weather in Porto Acre — Graph

°F

Porto Acre temperature yesterday

Maximum temperature yesterday: 86 °F (at 10:00 AM)
Minimum temperature yesterday: 72 °F (at 5:00 AM)
Average temperature yesterday: 77 °F

Past Weeks' High & Low Weather Summary

 TemperatureHumidityPressure
High91 °F (Dec 4, 1:00 PM)100% (Dec 5, 6:00 AM)29.95 "Hg (Dec 5, 6:00 AM)
Low70 °F (Dec 6, 12:00 AM)21% (Dec 13, 3:00 PM)29.65 "Hg (Dec 6, 5:00 PM)
Average77 °F83%29.83 "Hg
* Reported Dec 4 12:00 Noon — Dec 19 12:00 Noon, Porto Acre, Weather by CustomWeather, © 2014

Note: Actual official high and low records may vary slightly from our data, if they occured in-between our weather recording intervals... More about our weather records

Advertising

Porto Acre weather history for previous 24 hours

 ConditionsComfort  
Time TempWeatherWind HumidityBarometerVisibility
12:00 PM
Dec 19
86 °FRain. Broken clouds.6 mph62%29.80 "Hg3 mi
11:00 AM84 °FBroken clouds.2 mph66%29.83 "HgN/A
10:00 AM84 °FScattered clouds.3 mph66%29.86 "HgN/A
9:00 AM82 °FScattered clouds.5 mph74%29.89 "HgN/A
8:00 AM81 °FScattered clouds.6 mph79%29.86 "HgN/A
7:00 AM75 °FScattered clouds.5 mph94%29.83 "HgN/A
6:00 AM72 °FFog.3 mph100%29.83 "Hg1 mi
5:00 AM72 °FSleet. Passing clouds.2 mph100%29.80 "Hg1 mi
4:00 AM73 °FClear.2 mph94%29.80 "Hg10 mi
3:00 AM73 °FClear.2 mph94%29.80 "Hg10 mi
2:00 AM73 °FClear.No wind94%29.80 "Hg10 mi
1:00 AM73 °FClear.No wind94%29.80 "Hg10 mi
12:00 AM73 °FClear.No wind94%29.83 "Hg10 mi
11:00 PM
Dec 18
73 °FClear.No wind94%29.83 "Hg10 mi
10:00 PM73 °FClear.2 mph94%29.83 "Hg10 mi
9:00 PM75 °FClear.1 mph94%29.83 "Hg10 mi
8:00 PM75 °FClear.3 mph94%29.80 "Hg10 mi
7:00 PM75 °FClear.No wind94%29.77 "Hg10 mi
6:00 PM77 °FSunny.2 mph83%29.74 "Hg10 mi
5:00 PM79 °FScattered clouds.3 mph84%29.71 "HgN/A
4:00 PM79 °FBroken clouds.6 mph74%29.71 "HgN/A
3:00 PM75 °FLight rain. Broken clouds.8 mph83%N/A3 mi
2:00 PM84 °FScattered showers. Broken clouds.9 mph66%N/AN/A
1:00 PM82 °FLight rain. Broken clouds.13 mph66%N/A5 mi
Weather by CustomWeather, © 2014

See weather overviewHow to use our weather pages